| time (UTC) | temp F | wind direction | speed knots | gust knots | rain 1hr in | rain 24hr in | rain mn in | humidity % | barometer mb |
| 20260507232306 | 76 | 317 | 0.0 | 0.0 | 0.00 | 0.20 | 0.20 | 95 | 1017.6 |
| 20260507231802 | 75 | 316 | 0.0 | 0.0 | 0.00 | 0.20 | 0.20 | 95 | 1017.5 |
| 20260507231259 | 76 | 324 | 0.0 | 0.0 | 0.00 | 0.20 | 0.20 | 95 | 1017.3 |
| 20260507230755 | 75 | 31 | 0.0 | 0.0 | 0.00 | 0.20 | 0.20 | 95 | 1017.1 |
| 20260507230253 | 75 | 32 | 0.0 | 0.0 | 0.07 | 0.20 | 0.20 | 95 | 1017.0 |
| 20260507225752 | 75 | 44 | 0.0 | 0.9 | 0.07 | 0.20 | 0.20 | 95 | 1017.0 |
| 20260507225249 | 75 | 47 | 0.9 | 0.9 | 0.05 | 0.19 | 0.19 | 95 | 1016.9 |
| 20260507224745 | 75 | 83 | 0.9 | 0.9 | 0.35 | 0.19 | 0.19 | 94 | 1016.7 |
| 20260507224241 | 74 | 150 | 3.5 | 4.3 | 0.66 | 0.18 | 0.18 | 94 | 1016.7 |
| 20260507223738 | 74 | 153 | 7.0 | 8.7 | 0.61 | 0.13 | 0.13 | 94 | 1016.8 |
| 20260507223234 | 74 | 137 | 4.3 | 5.2 | 0.31 | 0.07 | 0.07 | 93 | 1017.0 |
| 20260507222731 | 75 | 170 | 3.5 | 5.2 | 0.12 | 0.03 | 0.03 | 93 | 1016.9 |
| 20260507222228 | 76 | 26 | 1.7 | 1.7 | 0.07 | 0.02 | 0.02 | 93 | 1016.9 |
| 20260507221725 | 77 | 189 | 4.3 | 5.2 | 0.05 | 0.01 | 0.01 | 91 | 1016.6 |
| 20260507221221 | 78 | 176 | 6.1 | 7.8 | 0.05 | 0.01 | 0.01 | 89 | 1016.9 |
| 20260507220717 | 78 | 115 | 1.7 | 2.6 | 0.00 | 0.00 | 0.00 | 90 | 1016.8 |
| 20260507220216 | 79 | 157 | 3.5 | 5.2 | 0.00 | 0.00 | 0.00 | 88 | 1016.9 |
| 20260507215711 | 79 | 88 | 4.3 | 5.2 | 0.00 | 0.00 | 0.00 | 87 | 1016.9 |
| 20260507215209 | 80 | 96 | 2.6 | 4.3 | 0.00 | 0.00 | 0.00 | 87 | 1016.4 |
| 20260507214707 | 81 | 99 | 4.3 | 5.2 | 0.00 | 0.00 | 0.00 | 86 | 1016.7 |
| 20260507214203 | 82 | 159 | 2.6 | 2.6 | 0.00 | 0.00 | 0.00 | 80 | 1016.4 |
| 20260507213659 | 83 | 120 | 4.3 | 6.1 | 0.00 | 0.00 | 0.00 | 78 | 1016.2 |
| 20260507213156 | 84 | 121 | 5.2 | 8.7 | 0.00 | 0.00 | 0.00 | 76 | 1016.3 |
| 20260507212652 | 85 | 24 | 2.6 | 2.6 | 0.00 | 0.00 | 0.00 | 75 | 1016.2 |
| 20260507212149 | 86 | 28 | 1.7 | 1.7 | 0.00 | 0.00 | 0.00 | 73 | 1016.2 |
| 20260507211646 | 86 | 102 | 3.5 | 4.3 | 0.00 | 0.00 | 0.00 | 72 | 1016.1 |
| 20260507211141 | 85 | 71 | 4.3 | 6.1 | 0.00 | 0.00 | 0.00 | 72 | 1016.0 |
| 20260507210639 | 84 | 116 | 4.3 | 5.2 | 0.00 | 0.00 | 0.00 | 74 | 1015.9 |
| 20260507210135 | 84 | 49 | 2.6 | 4.3 | 0.00 | 0.00 | 0.00 | 73 | 1016.1 |
| 20260507205632 | 84 | 40 | 3.5 | 5.2 | 0.00 | 0.00 | 0.00 | 75 | 1015.9 |
| 20260507205129 | 84 | 32 | 4.3 | 7.0 | 0.00 | 0.00 | 0.00 | 75 | 1015.9 |
| 20260507204625 | 84 | 56 | 4.3 | 6.1 | 0.00 | 0.00 | 0.00 | 74 | 1015.9 |
| 20260507204123 | 85 | 48 | 5.2 | 7.0 | 0.00 | 0.00 | 0.00 | 72 | 1015.9 |
| 20260507203621 | 87 | 46 | 3.5 | 6.1 | 0.00 | 0.00 | 0.00 | 73 | 1015.9 |
| 20260507203118 | 86 | 61 | 5.2 | 6.1 | 0.00 | 0.00 | 0.00 | 73 | 1015.9 |
| 20260507202613 | 86 | 60 | 6.1 | 7.0 | 0.00 | 0.00 | 0.00 | 73 | 1015.8 |
| 20260507202110 | 86 | 15 | 2.6 | 5.2 | 0.00 | 0.00 | 0.00 | 72 | 1015.9 |
| 20260507201605 | 86 | 65 | 4.3 | 6.1 | 0.00 | 0.00 | 0.00 | 71 | 1016.0 |
| 20260507201102 | 86 | 63 | 5.2 | 6.1 | 0.00 | 0.00 | 0.00 | 71 | 1015.8 |
| 20260507200557 | 86 | 14 | 5.2 | 8.7 | 0.00 | 0.00 | 0.00 | 74 | 1016.1 |
| 20260507200054 | 85 | 68 | 6.1 | 8.7 | 0.00 | 0.00 | 0.00 | 76 | 1016.0 |
| 20260507195551 | 86 | 352 | 4.3 | 7.0 | 0.00 | 0.00 | 0.00 | 74 | 1016.1 |
| 20260507195048 | 86 | 40 | 5.2 | 7.0 | 0.00 | 0.00 | 0.00 | 74 | 1015.9 |
| 20260507194544 | 86 | 32 | 6.1 | 9.6 | 0.00 | 0.00 | 0.00 | 74 | 1016.3 |
| 20260507194040 | 85 | 7 | 5.2 | 7.8 | 0.00 | 0.00 | 0.00 | 75 | 1015.9 |
| 20260507193538 | 86 | 41 | 4.3 | 6.1 | 0.00 | 0.00 | 0.00 | 73 | 1016.0 |
| 20260507193035 | 86 | 15 | 7.0 | 8.7 | 0.00 | 0.00 | 0.00 | 74 | 1016.1 |
| 20260507192531 | 86 | 45 | 6.1 | 8.7 | 0.00 | 0.00 | 0.00 | 73 | 1016.1 |
| 20260507192028 | 88 | 68 | 4.3 | 6.1 | 0.00 | 0.00 | 0.00 | 69 | 1016.1 |
| 20260507191523 | 87 | 11 | 7.8 | 8.7 | 0.00 | 0.00 | 0.00 | 71 | 1016.1 |
| 20260507191021 | 87 | 33 | 6.1 | 8.7 | 0.00 | 0.00 | 0.00 | 69 | 1016.2 |
| 20260507190518 | 87 | 44 | 11.3 | 13.9 | 0.00 | 0.00 | 0.00 | 71 | 1016.2 |
| 20260507190017 | 87 | 72 | 6.1 | 7.0 | 0.00 | 0.00 | 0.00 | 70 | 1016.3 |
| 20260507185514 | 86 | 359 | 7.8 | 11.3 | 0.00 | 0.00 | 0.00 | 71 | 1016.3 |
| 20260507185010 | 88 | 23 | 8.7 | 9.6 | 0.00 | 0.00 | 0.00 | 69 | 1016.1 |
| 20260507184509 | 87 | 58 | 6.1 | 8.7 | 0.00 | 0.00 | 0.00 | 70 | 1016.3 |
| 20260507184007 | 87 | 4 | 5.2 | 7.0 | 0.00 | 0.00 | 0.00 | 70 | 1016.4 |
| 20260507183502 | 87 | 47 | 11.3 | 13.9 | 0.00 | 0.00 | 0.00 | 68 | 1016.5 |
| 20260507183000 | 87 | 354 | 7.8 | 8.7 | 0.00 | 0.00 | 0.00 | 69 | 1016.3 |
| 20260507182456 | 87 | 49 | 9.6 | 13.0 | 0.00 | 0.00 | 0.00 | 70 | 1016.2 |
| 20260507181951 | 87 | 7 | 10.4 | 13.0 | 0.00 | 0.00 | 0.00 | 68 | 1016.5 |
| 20260507181448 | 87 | 30 | 7.0 | 8.7 | 0.00 | 0.00 | 0.00 | 69 | 1016.8 |
| 20260507180945 | 87 | 45 | 8.7 | 13.0 | 0.00 | 0.00 | 0.00 | 69 | 1016.5 |
| 20260507180442 | 87 | 349 | 7.0 | 8.7 | 0.00 | 0.00 | 0.00 | 70 | 1016.6 |
| 20260507175938 | 86 | 62 | 7.8 | 8.7 | 0.00 | 0.00 | 0.00 | 70 | 1016.6 |
| 20260507175434 | 88 | 37 | 4.3 | 9.6 | 0.00 | 0.00 | 0.00 | 69 | 1016.5 |
| 20260507174932 | 87 | 43 | 6.1 | 8.7 | 0.00 | 0.00 | 0.00 | 70 | 1016.8 |
| 20260507174429 | 87 | 22 | 8.7 | 11.3 | 0.00 | 0.00 | 0.00 | 71 | 1016.8 |
| 20260507173927 | 87 | 326 | 5.2 | 7.8 | 0.00 | 0.00 | 0.00 | 70 | 1016.7 |
| 20260507173424 | 87 | 19 | 7.0 | 11.3 | 0.00 | 0.00 | 0.00 | 70 | 1017.0 |
| 20260507172920 | 87 | 26 | 7.8 | 9.6 | 0.00 | 0.00 | 0.00 | 70 | 1016.9 |
| 20260507172417 | 87 | 35 | 9.6 | 13.0 | 0.00 | 0.00 | 0.00 | 69 | 1017.0 |
| 20260507171913 | 87 | 15 | 6.1 | 7.8 | 0.00 | 0.00 | 0.00 | 71 | 1017.0 |
| 20260507171409 | 87 | 11 | 7.8 | 11.3 | 0.00 | 0.00 | 0.00 | 69 | 1017.4 |
| 20260507170907 | 88 | 69 | 4.3 | 7.0 | 0.00 | 0.00 | 0.00 | 69 | 1017.6 |
| 20260507170403 | 87 | 9 | 6.1 | 8.7 | 0.00 | 0.00 | 0.00 | 69 | 1017.5 |
| 20260507165859 | 86 | 16 | 9.6 | 11.3 | 0.00 | 0.00 | 0.00 | 70 | 1017.6 |
| 20260507165355 | 88 | 21 | 4.3 | 5.2 | 0.00 | 0.00 | 0.00 | 68 | 1017.6 |
| 20260507164851 | 87 | 13 | 8.7 | 9.6 | 0.00 | 0.00 | 0.00 | 68 | 1017.6 |
| 20260507164349 | 86 | 41 | 7.8 | 9.6 | 0.00 | 0.00 | 0.00 | 70 | 1017.8 |
| 20260507163846 | 86 | 40 | 6.1 | 7.8 | 0.00 | 0.00 | 0.00 | 71 | 1017.7 |
| 20260507163343 | 87 | 13 | 8.7 | 9.6 | 0.00 | 0.00 | 0.00 | 70 | 1018.0 |
| 20260507162840 | 86 | 39 | 6.1 | 7.0 | 0.00 | 0.00 | 0.00 | 72 | 1018.1 |
| 20260507162335 | 86 | 34 | 7.0 | 7.8 | 0.00 | 0.00 | 0.00 | 73 | 1018.1 |
| 20260507161832 | 86 | 39 | 6.1 | 7.0 | 0.00 | 0.00 | 0.00 | 72 | 1017.9 |
| 20260507161329 | 86 | 40 | 5.2 | 6.1 | 0.00 | 0.00 | 0.00 | 73 | 1018.3 |
| 20260507160825 | 86 | 120 | 3.5 | 5.2 | 0.00 | 0.00 | 0.00 | 74 | 1018.0 |
| 20260507160321 | 86 | 337 | 5.2 | 6.1 | 0.00 | 0.00 | 0.00 | 74 | 1018.2 |
| 20260507155818 | 85 | 31 | 6.1 | 8.7 | 0.00 | 0.00 | 0.00 | 75 | 1018.1 |
| 20260507155314 | 86 | 45 | 7.0 | 7.8 | 0.00 | 0.00 | 0.00 | 75 | 1018.4 |
| 20260507154810 | 86 | 23 | 8.7 | 12.2 | 0.00 | 0.00 | 0.00 | 73 | 1018.5 |
| 20260507154308 | 86 | 25 | 4.3 | 6.1 | 0.00 | 0.00 | 0.00 | 74 | 1018.6 |
| 20260507153804 | 86 | 29 | 7.0 | 8.7 | 0.00 | 0.00 | 0.00 | 74 | 1018.4 |
| 20260507153301 | 86 | 342 | 5.2 | 7.0 | 0.00 | 0.00 | 0.00 | 74 | 1018.5 |
| 20260507152757 | 86 | 48 | 4.3 | 6.1 | 0.00 | 0.00 | 0.00 | 74 | 1018.5 |
| 20260507152254 | 87 | 24 | 0.9 | 1.7 | 0.00 | 0.00 | 0.00 | 72 | 1018.6 |
| 20260507151749 | 86 | 62 | 1.7 | 1.7 | 0.00 | 0.00 | 0.00 | 75 | 1018.5 |
| 20260507151246 | 86 | 37 | 3.5 | 4.3 | 0.00 | 0.00 | 0.00 | 74 | 1018.5 |
| 20260507150743 | 86 | 358 | 6.1 | 7.8 | 0.00 | 0.00 | 0.00 | 74 | 1018.5 |
| 20260507150240 | 86 | 64 | 2.6 | 7.0 | 0.00 | 0.00 | 0.00 | 75 | 1018.8 |
| 20260507145736 | 86 | 25 | 3.5 | 5.2 | 0.00 | 0.00 | 0.00 | 75 | 1018.7 |
| 20260507145232 | 85 | 72 | 2.6 | 4.3 | 0.00 | 0.00 | 0.00 | 76 | 1018.9 |
| 20260507144730 | 86 | 28 | 5.2 | 7.0 | 0.00 | 0.00 | 0.00 | 74 | 1018.7 |
| 20260507144227 | 87 | 14 | 0.9 | 0.9 | 0.00 | 0.00 | 0.00 | 70 | 1019.0 |
| 20260507143724 | 87 | 76 | 0.9 | 1.7 | 0.00 | 0.00 | 0.00 | 71 | 1018.9 |
| 20260507143221 | 88 | 42 | 2.6 | 2.6 | 0.00 | 0.00 | 0.00 | 71 | 1019.0 |
| 20260507142717 | 89 | 23 | 1.7 | 2.6 | 0.00 | 0.00 | 0.00 | 63 | 1018.8 |
| 20260507142214 | 89 | 94 | 4.3 | 6.1 | 0.00 | 0.00 | 0.00 | 63 | 1019.0 |
| 20260507141710 | 88 | 68 | 4.3 | 6.1 | 0.00 | 0.00 | 0.00 | 64 | 1019.3 |
| 20260507141207 | 88 | 336 | 1.7 | 1.7 | 0.00 | 0.00 | 0.00 | 64 | 1019.0 |
| 20260507140703 | 87 | 13 | 0.9 | 1.7 | 0.00 | 0.00 | 0.00 | 65 | 1019.0 |
| 20260507140201 | 88 | 15 | 2.6 | 4.3 | 0.00 | 0.00 | 0.00 | 64 | 1018.9 |
| 20260507135658 | 87 | 179 | 0.9 | 1.7 | 0.00 | 0.00 | 0.00 | 67 | 1019.1 |
| 20260507135155 | 86 | 66 | 2.6 | 2.6 | 0.00 | 0.00 | 0.00 | 66 | 1019.2 |
| 20260507134651 | 86 | 67 | 1.7 | 2.6 | 0.00 | 0.00 | 0.00 | 68 | 1019.1 |
| 20260507134147 | 86 | 54 | 3.5 | 4.3 | 0.00 | 0.00 | 0.00 | 69 | 1019.3 |
| 20260507133643 | 86 | 27 | 1.7 | 1.7 | 0.00 | 0.00 | 0.00 | 71 | 1019.3 |
| 20260507133141 | 87 | 21 | 0.9 | 1.7 | 0.00 | 0.00 | 0.00 | 68 | 1019.2 |
| 20260507132638 | 87 | 65 | 2.6 | 2.6 | 0.00 | 0.00 | 0.00 | 68 | 1019.1 |
| 20260507132134 | 87 | 44 | 3.5 | 4.3 | 0.00 | 0.00 | 0.00 | 69 | 1019.0 |
| 20260507131631 | 86 | 33 | 0.9 | 1.7 | 0.00 | 0.00 | 0.00 | 71 | 1018.8 |
| 20260507131129 | 85 | 58 | 2.6 | 2.6 | 0.00 | 0.00 | 0.00 | 72 | 1019.0 |
| 20260507130625 | 86 | 99 | 3.5 | 4.3 | 0.00 | 0.00 | 0.00 | 70 | 1018.9 |
| 20260507130123 | 85 | 29 | 0.0 | 0.0 | 0.00 | 0.00 | 0.00 | 73 | 1019.0 |
| 20260507125622 | 86 | 41 | 0.9 | 0.9 | 0.00 | 0.00 | 0.00 | 71 | 1019.1 |
| 20260507125119 | 85 | 66 | 2.6 | 4.3 | 0.00 | 0.00 | 0.00 | 74 | 1018.8 |
| 20260507124615 | 87 | 25 | 1.7 | 1.7 | 0.00 | 0.00 | 0.00 | 70 | 1018.7 |
| 20260507124113 | 84 | 31 | 0.9 | 0.9 | 0.00 | 0.00 | 0.00 | 74 | 1018.8 |
| 20260507123611 | 83 | 60 | 0.0 | 0.9 | 0.00 | 0.00 | 0.00 | 76 | 1019.0 |
| 20260507123108 | 82 | 96 | 2.6 | 2.6 | 0.00 | 0.00 | 0.00 | 78 | 1018.7 |
| 20260507122603 | 82 | 134 | 2.6 | 2.6 | 0.00 | 0.00 | 0.00 | 77 | 1018.8 |
| 20260507122059 | 83 | 35 | 1.7 | 2.6 | 0.00 | 0.00 | 0.00 | 77 | 1018.6 |
| 20260507121554 | 83 | 76 | 2.6 | 4.3 | 0.00 | 0.00 | 0.00 | 77 | 1018.7 |
| 20260507121051 | 82 | 104 | 3.5 | 5.2 | 0.00 | 0.00 | 0.00 | 79 | 1018.6 |
| 20260507120547 | 83 | 98 | 2.6 | 2.6 | 0.00 | 0.00 | 0.00 | 79 | 1018.7 |
| 20260507120044 | 83 | 358 | 2.6 | 2.6 | 0.00 | 0.00 | 0.00 | 79 | 1018.5 |
| 20260507115540 | 83 | 144 | 3.5 | 4.3 | 0.00 | 0.00 | 0.00 | 78 | 1018.5 |
| 20260507115036 | 82 | 108 | 3.5 | 5.2 | 0.00 | 0.00 | 0.00 | 80 | 1018.5 |
| 20260507114532 | 82 | 6 | 1.7 | 1.7 | 0.00 | 0.00 | 0.00 | 81 | 1018.4 |
| 20260507114030 | 81 | 2 | 0.0 | 0.0 | 0.00 | 0.00 | 0.00 | 82 | 1018.3 |
| 20260507113527 | 80 | 100 | 0.9 | 0.9 | 0.00 | 0.00 | 0.00 | 83 | 1018.2 |
| 20260507113024 | 80 | 196 | 0.9 | 1.7 | 0.00 | 0.00 | 0.00 | 83 | 1018.2 |
| 20260507112521 | 80 | 0 | 0.0 | 0.0 | 0.00 | 0.00 | 0.00 | 83 | 1018.1 |
| 20260507112018 | 80 | 44 | 0.9 | 0.9 | 0.00 | 0.00 | 0.00 | 84 | 1018.3 |
| 20260507111515 | 80 | 80 | 2.6 | 2.6 | 0.00 | 0.00 | 0.00 | 84 | 1018.1 |
| 20260507111011 | 80 | 10 | 1.7 | 1.7 | 0.00 | 0.00 | 0.00 | 83 | 1018.3 |
| 20260507110508 | 78 | 350 | 0.0 | 0.0 | 0.00 | 0.00 | 0.00 | 84 | 1018.2 |
| 20260507110005 | 78 | 351 | 0.0 | 0.0 | 0.00 | 0.00 | 0.00 | 85 | 1018.3 |
| 20260507105501 | 77 | 338 | 0.0 | 0.0 | 0.00 | 0.00 | 0.00 | 87 | 1017.9 |
| 20260507104958 | 77 | 337 | 0.9 | 0.9 | 0.00 | 0.00 | 0.00 | 88 | 1018.1 |
| 20260507104455 | 76 | 349 | 0.0 | 0.9 | 0.00 | 0.00 | 0.00 | 89 | 1018.0 |
| 20260507103950 | 76 | 4 | 0.9 | 0.9 | 0.00 | 0.00 | 0.00 | 90 | 1018.1 |
| 20260507103447 | 75 | 329 | 0.9 | 0.9 | 0.00 | 0.00 | 0.00 | 90 | 1018.2 |
| 20260507102944 | 75 | 333 | 0.9 | 0.9 | 0.00 | 0.00 | 0.00 | 91 | 1018.1 |
| 20260507102441 | 75 | 341 | 0.0 | 0.0 | 0.00 | 0.00 | 0.00 | 92 | 1017.9 |
| 20260507101937 | 75 | 345 | 0.0 | 0.0 | 0.00 | 0.00 | 0.00 | 92 | 1017.9 |
| 20260507101432 | 75 | 346 | 0.0 | 0.0 | 0.00 | 0.00 | 0.00 | 92 | 1017.9 |
| 20260507100929 | 75 | 344 | 0.0 | 0.0 | 0.00 | 0.00 | 0.00 | 92 | 1017.9 |
| 20260507100426 | 74 | 329 | 0.9 | 0.9 | 0.00 | 0.00 | 0.00 | 92 | 1017.6 |
| 20260507095925 | 74 | 228 | 0.9 | 1.7 | 0.00 | 0.00 | 0.00 | 92 | 1017.7 |
| 20260507095422 | 74 | 274 | 0.9 | 0.9 | 0.00 | 0.00 | 0.00 | 93 | 1017.6 |
| 20260507094919 | 74 | 52 | 0.0 | 0.9 | 0.00 | 0.00 | 0.00 | 93 | 1017.4 |
| 20260507094415 | 74 | 236 | 0.9 | 0.9 | 0.00 | 0.00 | 0.00 | 93 | 1017.4 |
| 20260507093912 | 74 | 240 | 1.7 | 1.7 | 0.00 | 0.00 | 0.00 | 93 | 1017.3 |
| 20260507093410 | 74 | 220 | 1.7 | 1.7 | 0.00 | 0.00 | 0.00 | 93 | 1017.4 |
| 20260507092908 | 74 | 303 | 0.9 | 0.9 | 0.00 | 0.00 | 0.00 | 93 | 1017.6 |
| 20260507092404 | 74 | 281 | 1.7 | 1.7 | 0.00 | 0.00 | 0.00 | 93 | 1017.4 |
| 20260507091900 | 74 | 341 | 0.9 | 0.9 | 0.00 | 0.00 | 0.00 | 93 | 1017.6 |
| 20260507091357 | 74 | 27 | 0.0 | 0.0 | 0.00 | 0.00 | 0.00 | 93 | 1017.5 |
| 20260507090852 | 74 | 27 | 0.0 | 0.0 | 0.00 | 0.00 | 0.00 | 93 | 1017.6 |
| 20260507090349 | 74 | 1 | 0.0 | 0.0 | 0.00 | 0.00 | 0.00 | 93 | 1017.7 |
| 20260507085846 | 74 | 303 | 0.9 | 0.9 | 0.00 | 0.00 | 0.00 | 93 | 1018.0 |
| 20260507085343 | 74 | 297 | 0.9 | 1.7 | 0.00 | 0.00 | 0.00 | 93 | 1017.7 |
| 20260507084840 | 74 | 297 | 0.9 | 0.9 | 0.00 | 0.00 | 0.00 | 93 | 1017.6 |
| 20260507084336 | 75 | 296 | 0.0 | 0.0 | 0.00 | 0.00 | 0.00 | 92 | 1017.8 |
| 20260507083834 | 75 | 302 | 0.9 | 1.7 | 0.00 | 0.00 | 0.00 | 91 | 1017.7 |
| 20260507083330 | 75 | 309 | 0.0 | 0.9 | 0.00 | 0.00 | 0.00 | 91 | 1017.6 |
| 20260507082827 | 75 | 309 | 0.0 | 0.0 | 0.00 | 0.00 | 0.00 | 91 | 1017.5 |
| 20260507082322 | 75 | 309 | 0.9 | 0.9 | 0.00 | 0.00 | 0.00 | 91 | 1017.8 |
| 20260507081820 | 75 | 311 | 0.0 | 0.9 | 0.00 | 0.00 | 0.00 | 90 | 1017.6 |
| 20260507081315 | 75 | 312 | 0.9 | 0.9 | 0.00 | 0.00 | 0.00 | 90 | 1017.6 |
| 20260507080812 | 75 | 312 | 0.0 | 0.0 | 0.00 | 0.00 | 0.00 | 90 | 1017.5 |
| 20260507080309 | 75 | 312 | 0.0 | 0.0 | 0.00 | 0.00 | 0.00 | 90 | 1017.6 |
| 20260507075804 | 75 | 312 | 0.9 | 0.9 | 0.00 | 0.00 | 0.00 | 90 | 1017.7 |
| 20260507075300 | 75 | 312 | 0.0 | 0.0 | 0.00 | 0.00 | 0.00 | 90 | 1017.4 |
| 20260507074757 | 75 | 312 | 0.0 | 0.0 | 0.00 | 0.00 | 0.00 | 90 | 1017.7 |
| 20260507074255 | 76 | 310 | 0.9 | 0.9 | 0.00 | 0.00 | 0.00 | 90 | 1017.6 |
| 20260507073752 | 76 | 237 | 0.9 | 0.9 | 0.00 | 0.00 | 0.00 | 90 | 1017.8 |
| 20260507073248 | 76 | 305 | 0.9 | 0.9 | 0.00 | 0.00 | 0.00 | 89 | 1017.5 |
| 20260507072746 | 76 | 229 | 0.9 | 1.7 | 0.00 | 0.00 | 0.00 | 89 | 1017.8 |
| 20260507072243 | 77 | 340 | 0.0 | 0.9 | 0.00 | 0.00 | 0.00 | 88 | 1017.9 |
| 20260507071740 | 77 | 6 | 0.0 | 0.0 | 0.00 | 0.00 | 0.00 | 89 | 1017.9 |
| 20260507071236 | 77 | 48 | 0.0 | 0.0 | 0.00 | 0.00 | 0.00 | 89 | 1017.9 |
| 20260507070734 | 77 | 41 | 0.0 | 0.0 | 0.00 | 0.00 | 0.00 | 89 | 1017.9 |
| 20260507070231 | 77 | 305 | 0.9 | 0.9 | 0.00 | 0.00 | 0.00 | 88 | 1017.7 |
| 20260507065727 | 77 | 23 | 0.0 | 0.0 | 0.00 | 0.00 | 0.00 | 89 | 1017.9 |
| 20260507065224 | 77 | 40 | 0.0 | 0.0 | 0.00 | 0.00 | 0.00 | 89 | 1017.9 |
| 20260507064721 | 77 | 301 | 0.9 | 0.9 | 0.00 | 0.00 | 0.00 | 89 | 1018.1 |
| 20260507064221 | 77 | 328 | 0.0 | 0.0 | 0.00 | 0.00 | 0.00 | 89 | 1018.3 |
| 20260507063717 | 77 | 328 | 0.0 | 0.0 | 0.00 | 0.00 | 0.00 | 88 | 1018.2 |
| 20260507063214 | 77 | 326 | 0.9 | 0.9 | 0.00 | 0.00 | 0.00 | 88 | 1018.3 |
| 20260507062711 | 77 | 342 | 0.0 | 0.0 | 0.00 | 0.00 | 0.00 | 89 | 1018.3 |
| 20260507062208 | 76 | 342 | 0.0 | 0.0 | 0.00 | 0.00 | 0.00 | 89 | 1018.3 |
| 20260507061706 | 76 | 342 | 0.0 | 0.0 | 0.00 | 0.00 | 0.00 | 88 | 1018.2 |
| 20260507061204 | 77 | 317 | 0.0 | 0.9 | 0.00 | 0.00 | 0.00 | 88 | 1018.4 |
| 20260507060702 | 77 | 315 | 0.9 | 0.9 | 0.00 | 0.00 | 0.00 | 88 | 1018.2 |
| 20260507060158 | 77 | 329 | 0.0 | 0.0 | 0.00 | 0.00 | 0.00 | 88 | 1018.3 |
| 20260507055654 | 77 | 341 | 0.0 | 0.0 | 0.00 | 0.00 | 0.00 | 88 | 1018.6 |
| 20260507055150 | 77 | 341 | 0.0 | 0.0 | 0.00 | 0.00 | 0.00 | 88 | 1018.7 |
| 20260507054646 | 77 | 331 | 0.0 | 0.0 | 0.00 | 0.00 | 0.00 | 88 | 1018.5 |
| 20260507054143 | 77 | 292 | 0.9 | 0.9 | 0.00 | 0.00 | 0.00 | 88 | 1018.7 |
| 20260507053641 | 77 | 172 | 1.7 | 2.6 | 0.00 | 0.00 | 0.00 | 87 | 1018.8 |
| 20260507053138 | 77 | 284 | 1.7 | 1.7 | 0.00 | 0.00 | 0.00 | 87 | 1018.8 |
| 20260507052637 | 77 | 319 | 0.0 | 0.9 | 0.00 | 0.00 | 0.00 | 87 | 1019.0 |
| 20260507052133 | 77 | 266 | 0.9 | 0.9 | 0.00 | 0.00 | 0.00 | 87 | 1019.0 |
| 20260507051630 | 77 | 328 | 0.9 | 0.9 | 0.00 | 0.00 | 0.00 | 87 | 1019.2 |
| 20260507051127 | 77 | 42 | 0.9 | 0.9 | 0.00 | 0.00 | 0.00 | 87 | 1019.0 |
| 20260507050624 | 78 | 134 | 0.9 | 0.9 | 0.00 | 0.00 | 0.00 | 87 | 1018.8 |
| 20260507050120 | 78 | 296 | 1.7 | 1.7 | 0.00 | 0.00 | 0.00 | 87 | 1019.2 |
| 20260507045618 | 78 | 222 | 2.6 | 2.6 | 0.00 | 0.00 | 0.00 | 87 | 1019.4 |
| 20260507045114 | 79 | 27 | 0.0 | 0.0 | 0.00 | 0.00 | 0.00 | 87 | 1019.4 |
| 20260507044611 | 79 | 105 | 1.7 | 2.6 | 0.00 | 0.00 | 0.00 | 87 | 1019.5 |
| 20260507044108 | 79 | 97 | 0.9 | 1.7 | 0.00 | 0.00 | 0.00 | 87 | 1019.6 |
| 20260507043604 | 79 | 144 | 1.7 | 1.7 | 0.00 | 0.00 | 0.00 | 87 | 1019.6 |
| 20260507043101 | 79 | 144 | 1.7 | 1.7 | 0.00 | 0.00 | 0.00 | 87 | 1019.7 |
| 20260507042557 | 79 | 58 | 0.9 | 0.9 | 0.00 | 0.00 | 0.00 | 86 | 1019.5 |
| 20260507042052 | 79 | 60 | 0.9 | 1.7 | 0.00 | 0.00 | 0.00 | 86 | 1019.9 |
| 20260507041550 | 79 | 65 | 0.9 | 1.7 | 0.00 | 0.00 | 0.00 | 86 | 1019.7 |
| 20260507041047 | 79 | 32 | 0.0 | 0.0 | 0.00 | 0.00 | 0.00 | 86 | 1020.0 |
| 20260507040543 | 79 | 33 | 0.0 | 0.0 | 0.00 | 0.00 | 0.00 | 86 | 1019.9 |
| 20260507040039 | 79 | 20 | 0.0 | 0.0 | 0.00 | 0.00 | 0.00 | 86 | 1020.0 |
| 20260507035535 | 79 | 36 | 0.9 | 0.9 | 0.00 | 0.00 | 0.00 | 86 | 1020.0 |
| 20260507035032 | 79 | 27 | 0.0 | 0.0 | 0.00 | 0.00 | 0.00 | 85 | 1020.1 |
| 20260507034529 | 79 | 85 | 1.7 | 1.7 | 0.00 | 0.00 | 0.00 | 85 | 1020.3 |
| 20260507034027 | 79 | 81 | 0.9 | 0.9 | 0.00 | 0.00 | 0.00 | 85 | 1020.0 |
| 20260507033524 | 79 | 159 | 3.5 | 4.3 | 0.00 | 0.00 | 0.00 | 85 | 1019.9 |
| 20260507033022 | 79 | 75 | 0.9 | 0.9 | 0.00 | 0.00 | 0.00 | 85 | 1020.1 |
| 20260507032518 | 80 | 137 | 1.7 | 1.7 | 0.00 | 0.00 | 0.00 | 84 | 1020.1 |
| 20260507032015 | 80 | 75 | 1.7 | 1.7 | 0.00 | 0.00 | 0.00 | 84 | 1020.2 |
| 20260507031511 | 80 | 52 | 0.9 | 0.9 | 0.00 | 0.00 | 0.00 | 84 | 1020.4 |
| 20260507031009 | 80 | 43 | 0.0 | 0.9 | 0.00 | 0.00 | 0.00 | 83 | 1020.2 |
| 20260507030505 | 80 | 70 | 0.9 | 0.9 | 0.00 | 0.00 | 0.00 | 84 | 1020.1 |
| 20260507030003 | 80 | 355 | 0.0 | 0.0 | 0.00 | 0.00 | 0.00 | 83 | 1020.1 |
| 20260507025459 | 80 | 42 | 0.9 | 0.9 | 0.00 | 0.00 | 0.00 | 83 | 1020.2 |
| 20260507024957 | 80 | 43 | 0.0 | 0.0 | 0.00 | 0.00 | 0.00 | 83 | 1020.2 |
| 20260507024454 | 80 | 33 | 0.9 | 0.9 | 0.00 | 0.00 | 0.00 | 83 | 1020.1 |
| 20260507023950 | 80 | 79 | 0.9 | 0.9 | 0.00 | 0.00 | 0.00 | 83 | 1020.1 |
| 20260507023447 | 80 | 12 | 0.0 | 0.0 | 0.00 | 0.00 | 0.00 | 82 | 1020.4 |
| 20260507022944 | 80 | 45 | 0.0 | 0.9 | 0.00 | 0.00 | 0.00 | 82 | 1019.9 |
| 20260507022442 | 80 | 72 | 0.9 | 0.9 | 0.00 | 0.00 | 0.00 | 82 | 1020.0 |
| 20260507021936 | 80 | 68 | 0.9 | 0.9 | 0.00 | 0.00 | 0.00 | 81 | 1020.0 |
| 20260507021432 | 80 | 89 | 0.0 | 0.9 | 0.00 | 0.00 | 0.00 | 81 | 1019.9 |
| 20260507020930 | 80 | 119 | 1.7 | 1.7 | 0.00 | 0.00 | 0.00 | 81 | 1019.9 |
| 20260507020426 | 80 | 104 | 0.9 | 1.7 | 0.00 | 0.00 | 0.00 | 81 | 1019.8 |
| 20260507015924 | 80 | 43 | 0.9 | 0.9 | 0.00 | 0.00 | 0.00 | 80 | 1019.8 |
| 20260507015422 | 80 | 135 | 2.6 | 4.3 | 0.00 | 0.00 | 0.00 | 80 | 1019.7 |
| 20260507014918 | 80 | 124 | 0.9 | 1.7 | 0.00 | 0.00 | 0.00 | 80 | 1019.7 |
| 20260507014414 | 80 | 62 | 0.9 | 0.9 | 0.00 | 0.00 | 0.00 | 80 | 1019.3 |
| 20260507013910 | 80 | 108 | 0.9 | 1.7 | 0.00 | 0.00 | 0.00 | 79 | 1019.4 |
| 20260507013408 | 81 | 84 | 0.9 | 1.7 | 0.00 | 0.00 | 0.00 | 79 | 1019.5 |
| 20260507012906 | 81 | 57 | 0.9 | 0.9 | 0.00 | 0.00 | 0.00 | 79 | 1019.6 |
| 20260507012401 | 81 | 17 | 0.0 | 0.0 | 0.00 | 0.00 | 0.00 | 79 | 1019.4 |
| 20260507011853 | 81 | 199 | 2.6 | 2.6 | 0.00 | 0.00 | 0.00 | 79 | 1019.3 |
| 20260507011349 | 81 | 128 | 2.6 | 2.6 | 0.00 | 0.00 | 0.00 | 79 | 1019.5 |
| 20260507010844 | 81 | 174 | 2.6 | 2.6 | 0.00 | 0.00 | 0.00 | 79 | 1019.5 |
| 20260507010340 | 81 | 153 | 4.3 | 5.2 | 0.00 | 0.00 | 0.00 | 79 | 1019.3 |
| 20260507005837 | 81 | 30 | 0.0 | 0.0 | 0.00 | 0.00 | 0.00 | 78 | 1019.3 |
| 20260507005334 | 81 | 94 | 2.6 | 4.3 | 0.00 | 0.00 | 0.00 | 78 | 1019.3 |
| 20260507004831 | 81 | 54 | 0.9 | 0.9 | 0.00 | 0.00 | 0.00 | 78 | 1019.3 |
| 20260507004328 | 81 | 92 | 1.7 | 2.6 | 0.00 | 0.00 | 0.00 | 78 | 1019.2 |
| 20260507003825 | 82 | 36 | 0.0 | 0.9 | 0.00 | 0.00 | 0.00 | 77 | 1019.1 |
| 20260507003321 | 82 | 75 | 0.9 | 0.9 | 0.00 | 0.00 | 0.00 | 77 | 1019.0 |
| 20260507002815 | 82 | 51 | 2.6 | 2.6 | 0.00 | 0.00 | 0.00 | 77 | 1019.1 |
| 20260507002311 | 82 | 60 | 0.9 | 0.9 | 0.00 | 0.00 | 0.00 | 76 | 1019.2 |
| 20260507001803 | 82 | 135 | 2.6 | 2.6 | 0.00 | 0.00 | 0.00 | 76 | 1019.2 |
| 20260507001300 | 82 | 156 | 3.5 | 4.3 | 0.00 | 0.00 | 0.00 | 76 | 1018.9 |
| 20260507000756 | 82 | 55 | 0.9 | 0.9 | 0.00 | 0.00 | 0.00 | 76 | 1018.9 |
| 20260507000252 | 82 | 48 | 0.9 | 0.9 | 0.00 | 0.00 | 0.00 | 75 | 1018.8 |
| 20260506235749 | 82 | 131 | 2.6 | 4.3 | 0.00 | 0.00 | 0.00 | 75 | 1018.5 |
| 20260506235244 | 82 | 128 | 0.9 | 1.7 | 0.00 | 0.00 | 0.00 | 75 | 1018.5 |
| 20260506234742 | 82 | 119 | 4.3 | 6.1 | 0.00 | 0.00 | 0.00 | 74 | 1018.5 |
| 20260506234239 | 82 | 43 | 0.9 | 1.7 | 0.00 | 0.00 | 0.00 | 74 | 1018.1 |
| 20260506233737 | 83 | 130 | 3.5 | 6.1 | 0.00 | 0.00 | 0.00 | 73 | 1018.2 |
| 20260506233233 | 83 | 352 | 0.9 | 0.9 | 0.00 | 0.00 | 0.00 | 72 | 1018.4 |
| 20260506232730 | 83 | 51 | 0.9 | 0.9 | 0.00 | 0.00 | 0.00 | 72 | 1018.2 |